Regional Weather Roundup
Issued by NWS

Home | Current Version | Previous Version | Text Only | Print | Product List | Glossary Off
Versions: 1 2 3 4 5 6 7 8 9 10 11 12 13 14 15 16 17 18 19 20 21 22 23 24 25 26 27 28 29 30 31 32 33 34 35 36 37 38 39 40 41 42 43 44 45 46 47 48 49 50

000
ASUS43 KDTX 230010
RWRMI
MICHIGAN HOURLY REGIONAL WEATHER ROUNDUP
NATIONAL WEATHER SERVICE DETROIT/PONTIAC MI
800 PM EDT TUE JUL 22 2014

NOTE: "FAIR" INDICATES FEW OR NO CLOUDS BELOW 12,000 FEET WITH NO
SIGNIFICANT WEATHER AND/OR OBSTRUCTION TO VISIBILITY.

MIZ047>049-052>055-059>063-066>070-074>076-081>083-230100-
SOUTHEAST LOWER MICHIGAN

CITY           SKY/WX    TMP DP  RH WIND       PRES   REMARKS
ADRIAN         SUNNY     85  65  51 SW12      29.97F
6HR MIN TEMP:  85; 6HR MAX TEMP:  91;

ALMA           CLOUDY    82  67  59 SW6       29.93F
6HR MIN TEMP:  82; 6HR MAX TEMP:  87;

ANN ARBOR      SUNNY     84  66  54 SW7       29.95S
BAD AXE        CLOUDY    83  67  57 SW10G16   29.91R
6HR MIN TEMP:  83; 6HR MAX TEMP:  86;

CARO           MOSUNNY   84  68  57 SW9       29.91S
DETROIT CITY   PTCLDY    89  65  44 SW12      29.93F HX  91
6HR MIN TEMP:  88; 6HR MAX TEMP:  92;

DETROIT        PTCLDY    86  66  51 S13       29.95F
6HR MIN TEMP:  86; 6HR MAX TEMP:  94;

FLINT          SUNNY     85  67  54 W7        29.94S
6HR MIN TEMP:  85; 6HR MAX TEMP:  89;

GROSSE ILE     CLEAR     84  70  61 S10       29.93F
HILLSDALE      MOSUNNY   84  67  57 SW6       29.99S
6HR MIN TEMP:  84; 6HR MAX TEMP:  87;

HOWELL         SUNNY     83  65  54 SW8       29.95S
6HR MIN TEMP:  83; 6HR MAX TEMP:  87;


CITY           SKY/WX    TMP DP  RH WIND       PRES   REMARKS
JACKSON        SUNNY     83  68  60 SW8       29.97S
6HR MIN TEMP:  83; 6HR MAX TEMP:  86;

LAMBERTVILLE   CLEAR     86  64  48 SW12      29.97S
LANSING        CLOUDY    83  67  58 SW12      29.96R
6HR MIN TEMP:  83; 6HR MAX TEMP:  87;

LAPEER         FAIR      84  65  52 SW7       29.93F
MASON          MOSUNNY   82  68  63 SW5       29.96R
MONROE         CLEAR     86  64  48 SW8       29.94S
MT. CLEMENS    PTCLDY    87  66  49 SW13      29.91F
6HR MIN TEMP:  85; 6HR MAX TEMP:  90;

PONTIAC        PTCLDY    85  65  51 SW8       29.95R
6HR MIN TEMP:  85; 6HR MAX TEMP:  89;

PORT HOPE        N/A     84  66  54 SW8       29.87S
6HR MIN TEMP:  84; 6HR MAX TEMP:  88;

PORT HURON     PTCLDY    82  68  61 S7        29.93R
TRI CITIES     PTSUNNY   85  68  56 SW13      29.92S
6HR MIN TEMP:  85; 6HR MAX TEMP:  88;

TROY           CLEAR     87  62  43 SW14G22   29.95R
SAGINAW HB     MOSUNNY   84  64  51 SW8       29.91S
$$
MIZ043>046-050>051-056>058-064>065-071>073-077>080-230100-
SOUTHWEST LOWER MICHIGAN

CITY           SKY/WX    TMP DP  RH WIND       PRES   REMARKS
BATTLE CREEK   PTSUNNY   84  67  56 SW13      29.98R
6HR MIN TEMP:  84; 6HR MAX TEMP:  87;

BENTON HARBOR  CLOUDY    83  70  64 S7        29.95F
6HR MIN TEMP:  83; 6HR MAX TEMP:  87;

BIG RAPIDS     PTSUNNY   80  66  63 SW8       29.92S
6HR MIN TEMP:  80; 6HR MAX TEMP:  87;

COLDWATER      MOSUNNY   84  68  58 SW8       29.99R
6HR MIN TEMP:  84; 6HR MAX TEMP:  87;

FREMONT        FAIR      81  66  61 SW10      29.92S
6HR MIN TEMP:  81; 6HR MAX TEMP:  86;

HOLLAND        SUNNY     84  70  62 SW16      29.94F
6HR MIN TEMP:  83; 6HR MAX TEMP:  91;

GRAND RAPIDS   CLOUDY    85  71  63 SW9       29.94F HX  90
6HR MIN TEMP:  85; 6HR MAX TEMP:  89;

IONIA          MOCLDY    84  67  58 SW8       29.93F
KALAMAZOO      MOSUNNY   84  69  60 SW8       29.97S
6HR MIN TEMP:  84; 6HR MAX TEMP:  88;

LUDINGTON      CLOUDY    80  71  75 SW14      29.90S
6HR MIN TEMP:  77; 6HR MAX TEMP:  82;

MARSHALL       MOSUNNY   82  68  60 SW9       29.97R
MOUNT PLEASANT CLOUDY    82  68  62 SW5       29.92S
6HR MIN TEMP:  82; 6HR MAX TEMP:  87;

MUSKEGON       PTSUNNY   81  68  64 S18G26    29.92F
6HR MIN TEMP:  80; 6HR MAX TEMP:  85; 6HR PCP: TRACE;

SOUTH HAVEN    PTSUNNY   83  72  68 SW8       29.95F
$$
MIZ016>042-230100-
NORTHERN LOWER MICHIGAN

CITY           SKY/WX    TMP DP  RH WIND       PRES   REMARKS
ALPENA         MOSUNNY   83  69  62 SW7       29.85R
6HR MIN TEMP:  83; 6HR MAX TEMP:  89;

BEAVER ISLAND  MOSUNNY   69  62  78 NW12G18   29.92R
6HR MIN TEMP:  67; 6HR MAX TEMP:  76;

BELLAIRE       CLOUDY    77  72  83 W3        29.88R
6HR MIN TEMP:  77; 6HR MAX TEMP:  85;

CADILLAC       SUNNY     77  70  80 SW8       29.92S
CHARLEVOIX     PTSUNNY   71  64  80 W14       29.93R
6HR MIN TEMP:  71; 6HR MAX TEMP:  85;

FRANKFORT      CLOUDY    75  65  72 W3        29.92R
GAYLORD        LGT RAIN  77  71  82 NW7G21    29.88F
6HR MIN TEMP:  77; 6HR MAX TEMP:  86; 6HR PCP:  0.05;

GRAYLING       PTSUNNY   80  70  70 SW6       29.89F
HARBOR SPRINGS CLOUDY    73  65  75 W8        29.90R
HOUGHTON LAKE  PTSUNNY   80  70  71 SW9       29.92S
6HR MIN TEMP:  80; 6HR MAX TEMP:  86;

MANISTEE       PTSUNNY   79  70  73 SW8       29.91R
OSCODA         CLOUDY    84  64  50 SW14G20   29.87S
PELLSTON       CLOUDY    74  66  76 W10       29.89R
6HR MIN TEMP:  73; 6HR MAX TEMP:  83; 6HR PCP:  0.72;

ROGERS CITY    PTSUNNY   72  69  88 NW7       29.85R
TRAVERSE CITY  TSTM      80  71  74 NW12G24   29.87R
6HR MIN TEMP:  80; 6HR MAX TEMP:  88; 6HR PCP: TRACE;

$$
MIZ007>008-015-230100-
EASTERN UPPER MICHIGAN

CITY           SKY/WX    TMP DP  RH WIND       PRES   REMARKS
KINROSS        PTSUNNY   68  61  77 NW12G17   29.87R
6HR MIN TEMP:  68; 6HR MAX TEMP:  75; 6HR PCP:  0.02;

MACKINAC ISLAN SUNNY     67  63  85 W7        29.87R
6HR MIN TEMP:  67; 6HR MAX TEMP:  79; 6HR PCP:  0.04;

NEWBERRY       CLOUDY    64  56  76 MISG      29.90R
S. S. MARIE    CLOUDY    63  56  78 NW18G28   29.88R
6HR MIN TEMP:  63; 6HR MAX TEMP:  78; 6HR PCP:  0.07;

MUNISING         N/A     62  53  72 NW17G35   29.99R
6HR MIN TEMP:  62; 6HR MAX TEMP:  83;

$$
MIZ004>006-011>014-085-230100-
CENTRAL UPPER MICHIGAN

CITY           SKY/WX    TMP DP  RH WIND       PRES   REMARKS
MANISTIQUE     MOSUNNY   67  57  69 NW23G31   29.94R
6HR MIN TEMP:  66; 6HR MAX TEMP:  83;

ESCANABA       PTSUNNY   73  61  64 NW15G22   29.94R
6HR MIN TEMP:  73; 6HR MAX TEMP:  90;

MENOMINEE      PTSUNNY   79  63  57 N10G21    29.93R
6HR MIN TEMP:  79; 6HR MAX TEMP:  91;

SAWYER-GWINN   CLOUDY    64  55  72 N25G37    30.01R
$$
MIZ001>003-009>011-084-230100-
WESTERN UPPER MICHIGAN

CITY           SKY/WX    TMP DP  RH WIND       PRES   REMARKS
IRON MOUNTAIN  CLOUDY    67  60  78 NW16      30.02R
6HR MIN TEMP:  67; 6HR MAX TEMP:  85; 6HR PCP:  0.01;

HOUGHTON       CLOUDY    63  55  75 NW13G21   30.06R
6HR MIN TEMP:  63; 6HR MAX TEMP:  73;

COPPER HARBOR    N/A     58  53  84 N22G33    30.03R
6HR MIN TEMP:  58; 6HR MAX TEMP:  75;

IRONWOOD       MOSUNNY   70  57  64 NE3       30.06R
6HR MIN TEMP:  66; 6HR MAX TEMP:  72;

$$

ABBREVIATIONS USED IN REMARKS
   TC - TEMPERATURE IN CELSIUS
  WCI - WIND CHILL INDEX
   HX - HEAT INDEX
  VSB - VISIBILITY



USA.gov is the U.S. government's official web portal to all federal, state and local government web resources and services.